カタログに戻る

STARLINK-11509

運用中通信VLEO
NORAD 63059·PAYLOAD·🇺🇸 United States

打ち上げ Feb 21, 2025 から Cape Canaveral Space Force Station

Loading…

次のパス (今後24時間)

TLE

最新Source: CelesTrak SupGP

元期: Sep 15, 2026, 02:37 UTC

1 63059C 25035H   26258.10951389  .00041951  00000+0  32597-3 0  2583
2 63059  43.0000 313.8092 0001568 257.3239 300.0423 15.70807639    18

AllMySatでSTARLINK-11509をリアルタイム追跡

Download on the App Store